Weather Roundup
Issued by NWS Chicago, IL

Home | Current Version | Previous Version | Graphics & Text | Print | Product List | Glossary On
Versions: 1 2 3 4 5 6 7 8 9 10 11 12 13 14 15 16 17 18 19 20 21 22 23 24 25 26 27 28 29 30 31 32 33 34 35 36 37 38 39 40 41 42 43 44 45 46 47 48 49 50
000
NZUS59 KLOT 201706
HRRLOT

CHICAGO AREA WEATHER ROUNDUP
NATIONAL WEATHER SERVICE CHICAGO/ROMEOVILLE IL
1100 AM CST SAT DEC 20 2014

NOTE: "FAIR" INDICATES FEW OR NO CLOUDS BELOW 12,000 FEET WITH NO
SIGNIFICANT WEATHER AND/OR OBSTRUCTIONS TO VISIBILITY.

* THESE STATIONS ARE NOT UNDER NWS QUALITY CONTROL. THEY ALSO MAY NOT
  REPORT WEATHER SUCH AS PRECIPITATION OR FOG.

ILZ005-006-012>014-019>023-201800-
NORTHEAST ILLINOIS

CITY           SKY/WX    TMP DP  RH WIND       PRES   REMARKS
OHARE          CLOUDY    31  23  72 SW6       30.27F WCI  25
MIDWAY         FLURRIES  33  26  75 S6        30.29S WCI  28
AURORA         CLOUDY    30  24  78 S6        30.28F HAZE    WCI  24
LANSING*       CLOUDY    32  26  79 SW6       30.29F WCI  26
JOLIET*        CLOUDY    32  25  76 S5        30.29F WCI  27
WAUKEGAN       CLOUDY    30  23  75 SW3       30.26F
DUPAGE AIRPORT CLOUDY    30  24  78 S6        30.27F WCI  24
WHEELING       CLOUDY    32  23  69 S7        30.29F WCI  26
KANKAKEE*      CLOUDY    32  27  83 S5        30.30F WCI  27
MORRIS*        CLOUDY    31  28  86 S5        30.29S WCI  26
LEWIS AIRPORT* CLOUDY    32  26  81 SW7       30.28F WCI  25
NORTHERLY IS     N/A     32  24  73 S9          N/A  WCI  24
$$

WIZ051-052-058>065-066-070>072-201800-
SOUTHEAST WISCONSIN

CITY           SKY/WX    TMP DP  RH WIND       PRES   REMARKS
MILWAUKEE      CLOUDY    30  19  63 W3        30.26F
KENOSHA*       CLOUDY    30  23  75 CALM      30.26F
RACINE*        CLOUDY    30  21  69 W5        30.28F WCI  25
BURLINGTON     CLOUDY    27  22  81 CALM      30.26F
WAUKESHA       CLOUDY    27  19  74 CALM      30.26F
WEST BEND      CLOUDY    30  21  69 CALM      30.24F
$$

INZ001>003-010>013-019-020-201800-
NORTHWEST INDIANA

CITY           SKY/WX    TMP DP  RH WIND       PRES   REMARKS
GARY*          CLOUDY    34  23  64 CALM      30.30S
MICHIGAN CITY* NOT AVBL
RENSSELAER*    NOT AVBL
VALPARAISO     CLOUDY    32  24  72 SW7       30.30S WCI  26
$$

LMZ740>746-201800-
SOUTHERN LAKE MICHIGAN

STATION/POSITION TIME  SKY/WX   TEMP WIND        PRES    VSBY
                                AIR  DIR/SP/G
                 (UTC)          (F)  (DEG/KT/KT) (MB)    (MI)
HARRISON CRIB    1700            31  200/ 12/ 14   N/A
BURNHAM HARBOR   1700            32  200/  7/  9   N/A
CALUMET HARBOR   1700            32  190/  3/  6 1024.3F
BURNS HARBOR     NOT AVBL
MICHIGAN CITY    NOT AVBL
$$

ABBREVIATIONS USED IN REMARKS
   TC - TEMPERATURE IN CELSIUS
  WCI - WIND CHILL INDEX
   HX - HEAT INDEX
  VSB - VISIBILITY
$$


USA.gov is the U.S. government's official web portal to all federal, state and local government web resources and services.